[[{"header":{"parameterUnit":"m.s-1","parameterCategory":1,"la1":30.2991,"la2":30.254,"lo1":-89.0895,"lo2":-89.0444,"dy":0.0017,"dx":0.0017,"nx":28,"ny":28,"refTime":"2023-10-24T03:00:00:Z","depth":0,"parameterNumber":2,"parameterNumberName":"U-component_of_WINDS"},"data":[0,0,0,0,0,0,0,0,0,0,0,0,0,0,0,0,0,0,0,0,0,0,0,0,0,0,0,0,0,0,0,0,0,0,0,0,0,0,0,0,0,0,0,0,0,0,0,0,0,0,0,0,0,0,0,0,0,0,-5.9854,-5.9854,0,-5.9857,-5.9857,-5.9857,-5.9719,-5.9715,-5.9711,-5.9708,-5.9711,-5.9714,-5.9718,0,0,0,0,0,0,0,0,0,0,0,0,0,-5.9731,-5.9734,-5.9854,-5.9854,-5.9854,-5.9857,-5.9857,-5.9857,-5.9719,-5.9715,-5.971,-5.9706,-5.971,-5.9714,-5.9718,0,0,0,0,0,0,0,0,0,0,0,0,0,-5.9764,-5.9735,-5.9854,-5.9786,-5.9779,-5.9857,-5.9857,-5.9857,-5.972,-5.9715,-5.9709,-5.9704,-5.9708,-5.9713,-5.9719,-5.9861,0,0,-5.9735,-5.9737,0,0,0,0,0,0,0,0,-5.9763,-5.9769,-5.9796,-5.979,-5.9784,-5.9782,-5.9814,-5.9858,-5.9722,-5.9743,-5.9708,-5.9701,-5.9739,-5.9741,-5.9754,-5.9861,-5.9861,-5.9735,-5.9738,-5.9741,-5.9742,0,0,0,0,0,0,0,-5.976,-5.9768,-5.9855,-5.9796,-5.9789,-5.9755,-5.9754,-5.9822,-5.9772,-5.974,-5.973,-5.9733,-5.9735,-5.9749,-5.9753,-5.9861,-5.9735,-5.974,-5.9743,-5.9745,-6.0087,-6.0093,0,0,0,0,0,0,-5.9767,-5.9767,-5.9855,-5.9855,-5.9759,-5.9762,-5.9761,-5.9788,-5.977,-5.9763,-5.9737,-5.9726,-5.9743,-5.9747,-5.9752,-5.9918,-5.974,-5.9745,-5.9748,-6.0081,-6.0089,-6.0095,0,0,0,0,0,0,-5.9765,-5.9776,-5.9854,-5.9808,-5.9816,-5.977,-5.9802,-5.9791,-5.9805,-5.9768,-5.9759,-5.9761,-5.9739,-5.9745,-5.9835,-5.9916,-5.9748,-5.9753,-6.0074,-6.0084,-6.0092,-6.0251,0,0,0,0,0,0,-5.9762,-5.9776,-5.9829,-5.981,-5.9819,-5.9937,-5.9807,-5.9795,-5.9814,-5.98,-5.9788,-5.9781,-5.9735,-5.9828,-5.9841,-5.992,-5.9757,-6.0067,-6.0079,-6.0089,-6.0238,-6.0264,-6.0286,0,0,0,0,0,-5.9758,-5.9873,-5.9833,-5.9844,-5.9884,-5.9942,-5.9947,-5.9891,-5.9822,-5.9875,-5.9852,-5.9781,-5.9906,-5.9839,-5.9851,-5.9934,-6.0061,-6.0075,-6.0088,-6.0227,-6.0259,-6.0286,0,0,0,0,0,0,-5.9902,-5.987,-5.9824,-5.9936,-5.9943,-5.9919,-5.9983,-5.9927,-5.9953,-5.9938,-5.9869,-5.9867,-5.9969,-5.9961,-5.9886,-6.0072,-5.9972,-5.9988,-6.0073,-6.0103,-6.0127,-6.0125,-5.9761,0,0,0,0,0,-5.9947,-5.9997,-5.9966,-6.0068,-6.0074,-6.0029,-6.0052,-6.001,-6.0014,-6.0016,-5.9999,-6.0006,-6.0046,-6.0074,-6.011,-6.0238,-6.0233,-6.0301,-6.0325,-6.0345,-6.036,-6.0428,-6.0457,-6.0139,-6.0139,-6.0139,0,0,-6.004,-6.0028,-6.0064,-6.0097,-6.0097,-6.0151,-6.0032,-6.0093,-6.0132,-6.0025,-6.0108,-6.0098,-6.0101,-6.0211,-6.0258,-6.0207,-6.0447,-6.0362,-6.0379,-6.0382,-6.0444,-6.0475,-6.0501,-6.0148,-6.0147,-6.0145,0,0,-6.0236,-6.0233,-6.0317,-6.0321,-6.0323,-6.0293,-6.0314,-6.0299,-6.0288,-6.0371,-6.0292,-6.0339,-6.041,-6.0416,-6.0429,-6.0632,-6.0569,-6.0646,-6.0771,-6.0838,-6.0863,-6.0885,-6.0957,-6.0984,-6.0661,-6.0662,-6.0662,0,-6.035,-6.0427,-6.0368,-6.0436,-6.0453,-6.036,-6.0446,-6.0453,-6.0467,-6.0481,-6.0424,-6.0514,-6.0509,-6.062,-6.067,-6.0683,-6.0705,-6.0645,-6.0864,-6.0886,-6.0905,-6.0973,-6.1001,-6.0671,-6.067,-6.0669,-6.0668,0,-6.0568,-6.0624,-6.0693,-6.0709,-6.0735,-6.0812,-6.0765,-6.0798,-6.0755,-6.0732,-6.0819,-6.0812,-6.0845,-6.0868,-6.0826,-6.0974,-6.0942,-6.0876,-6.0773,-6.0946,-6.1009,-6.1034,-6.0684,-6.0681,-6.0678,-6.0676,0,0,-6.0851,-6.0837,-6.0863,-6.087,-6.0868,-6.091,-6.0984,-6.1017,-6.1046,-6.1061,-6.1121,-6.1186,-6.1126,-6.114,-6.1098,-6.1158,-6.132,-6.1084,-6.1083,-6.1128,-6.1483,-6.1531,-6.1562,-6.1279,-6.1284,-6.1288,-6.1482,0,-6.104,-6.1164,-6.1115,-6.1243,-6.1294,-6.1209,-6.1273,-6.128,-6.1261,-6.1302,-6.1281,-6.1328,-6.1245,-6.1254,-6.1309,-6.1289,-6.139,-6.1274,-6.1334,-6.1337,-6.1334,-6.1595,-6.1646,-6.1829,-6.1507,-6.1511,-6.1514,0,-6.1276,-6.1301,-6.1435,-6.1426,-6.1446,-6.1504,-6.1532,-6.1572,-6.1579,-6.1561,-6.158,-6.1526,-6.1599,-6.1499,-6.1599,-6.1521,-6.1544,-6.1538,-6.1544,-6.1545,-6.1434,-6.1602,-6.1886,-6.1914,-6.1552,-6.1549,-6.1546,0,-6.1468,-6.1536,-6.1624,-6.1634,-6.1626,-6.1669,-6.1668,-6.1669,-6.1693,-6.1718,-6.1733,-6.1766,-6.1784,-6.1811,-6.1769,-6.17,-6.1875,-6.1771,-6.1862,-6.1863,-6.19,-6.1898,-6.219,-6.1919,-6.1918,-6.1918,-6.1917,0,-6.1683,-6.1768,-6.171,-6.1765,-6.1859,-6.1803,-6.1897,-6.1887,-6.1889,-6.1941,-6.187,-6.1921,-6.1862,-6.1907,-6.1875,-6.1963,-6.1971,-6.1959,-6.1949,-6.1965,-6.1966,-6.1976,-6.1962,-6.1925,-6.1923,-6.1922,-6.1921,0,-6.1911,-6.1876,-6.1967,-6.1954,-6.1953,-6.2022,-6.201,-6.2061,-6.2039,-6.2106,-6.2118,-6.2084,-6.2133,-6.2095,-6.2143,-6.2121,-6.2237,-6.221,-6.2235,-6.2227,-6.2319,-6.2311,-6.2627,-6.2665,-6.2371,-6.2374,-6.2376,0,-6.2049,-6.2113,-6.2107,-6.2137,-6.2141,-6.219,-6.2214,-6.2164,-6.2192,-6.2207,-6.2256,-6.23,-6.2332,-6.2416,-6.2395,-6.2433,-6.2405,-6.2514,-6.241,-6.2424,-6.2406,-6.2402,-6.2408,-6.2534,-6.2537,-6.254,-6.2542,0,-6.2299,-6.2279,-6.2317,-6.2351,-6.2383,-6.2406,-6.2424,-6.2453,-6.2402,-6.2438,-6.2488,-6.2514,-6.2565,-6.261,-6.2641,-6.264,-6.2584,-6.2576,-6.2599,-6.2614,-6.2625,-6.2619,-6.229,-6.2568,-6.2565,-6.2564,-6.2562,-6.2561,-6.2485,-6.2538,-6.2543,-6.2589,-6.2598,-6.2617,-6.2664,-6.265,-6.2691,-6.2728,-6.2697,-6.2758,-6.2765,-6.2801,-6.2808,-6.2856,-6.2811,-6.2844,-6.2852,-6.2861,-6.2873,-6.262,-6.2861,-6.2861,-6.286,-6.2859,-6.2859,0,-6.273,-6.273,-6.2772,-6.2801,-6.2838,-6.2783,-6.2801,-6.2835,-6.289,-6.2902,-6.2936,-6.2995,-6.304,-6.3025,-6.3064,-6.3105,-6.308,-6.3117,-6.3112,-6.3113,-6.2912,-6.2887,-6.3137,-6.3137,-6.3137,-6.3136,-6.3136,-6.3136,-6.2861,-6.2948,-6.293,-6.3022,-6.3021,-6.3081,-6.3096,-6.3114,-6.3124,-6.3193,-6.323,-6.322,-6.3222,-6.3262,-6.33,-6.3295,-6.3312,-6.3358,-6.3344,-6.3155,-6.3127,-6.3101,-6.3078,-6.3363,-6.3363,-6.3541,-6.3543,-6.3544]},{"header":{"parameterUnit":"m.s-1","parameterCategory":1,"la1":30.2991,"la2":30.254,"lo1":-89.0895,"lo2":-89.0444,"dy":0.0017,"dx":0.0017,"nx":28,"ny":28,"refTime":"2023-10-24T03:00:00:Z","depth":0,"parameterNumber":3,"parameterNumberName":"V-component_of_WINDS"},"data":[0,0,0,0,0,0,0,0,0,0,0,0,0,0,0,0,0,0,0,0,0,0,0,0,0,0,0,0,0,0,0,0,0,0,0,0,0,0,0,0,0,0,0,0,0,0,0,0,0,0,0,0,0,0,0,0,0,0,2.1332,2.1332,0,2.1317,2.1317,2.1316,2.1268,2.1267,2.1266,2.1265,2.1246,2.1247,2.1247,0,0,0,0,0,0,0,0,0,0,0,0,0,2.132,2.132,2.1332,2.1332,2.1332,2.1317,2.1317,2.1316,2.1268,2.1267,2.1265,2.1264,2.1246,2.1247,2.1247,0,0,0,0,0,0,0,0,0,0,0,0,0,2.1317,2.132,2.1332,2.1306,2.1303,2.1317,2.1317,2.1316,2.1268,2.1267,2.1265,2.1263,2.1246,2.1247,2.1247,2.1284,0,0,2.125,2.125,0,0,0,0,0,0,0,0,2.1317,2.1317,2.131,2.1308,2.1305,2.1293,2.1305,2.1305,2.1269,2.1281,2.1265,2.1263,2.1263,2.1262,2.1263,2.1283,2.1282,2.125,2.125,2.125,2.1251,0,0,0,0,0,0,0,2.1317,2.1318,2.1326,2.131,2.1307,2.1295,2.1293,2.1305,2.1281,2.128,2.1277,2.1276,2.1261,2.1262,2.1262,2.1282,2.125,2.125,2.1251,2.1251,2.1337,2.1338,0,0,0,0,0,0,2.1321,2.1318,2.1326,2.1325,2.1307,2.1296,2.1294,2.1298,2.1281,2.1277,2.1277,2.1273,2.1261,2.1261,2.1261,2.1305,2.125,2.1251,2.1252,2.1335,2.1337,2.1339,0,0,0,0,0,0,2.1321,2.1322,2.1327,2.1321,2.1321,2.1298,2.1303,2.1299,2.1299,2.1279,2.1274,2.1282,2.126,2.126,2.128,2.1304,2.1251,2.1252,2.1333,2.1335,2.1338,2.1392,0,0,0,0,0,0,2.1321,2.1323,2.1336,2.1322,2.1321,2.1346,2.1305,2.13,2.1301,2.1296,2.1282,2.1278,2.1259,2.1279,2.1281,2.1304,2.1253,2.133,2.1334,2.1337,2.1388,2.1397,2.1404,0,0,0,0,0,2.1321,2.135,2.1337,2.1338,2.1337,2.1347,2.1347,2.1325,2.1303,2.1317,2.1304,2.1279,2.1301,2.1281,2.1283,2.1307,2.1329,2.1333,2.1337,2.1385,2.1395,2.1404,0,0,0,0,0,0,2.1366,2.1348,2.1333,2.1359,2.1355,2.1339,2.1355,2.1336,2.1337,2.1332,2.1304,2.1301,2.1326,2.1318,2.1296,2.1343,2.1311,2.1316,2.1347,2.1357,2.1364,2.1365,2.1253,0,0,0,0,0,2.1379,2.139,2.1373,2.1398,2.1397,2.1377,2.138,2.1364,2.1359,2.1357,2.1345,2.1341,2.1347,2.1351,2.1356,2.1388,2.1385,2.1405,2.1413,2.1419,2.1423,2.1443,2.1452,2.1352,2.1352,2.1352,0,0,2.1406,2.1398,2.1405,2.1407,2.1402,2.1414,2.1376,2.1388,2.1397,2.1358,2.1377,2.1369,2.1363,2.139,2.1401,2.1384,2.1451,2.1425,2.143,2.143,2.1448,2.1457,2.1466,2.1355,2.1355,2.1354,0,0,2.1461,2.1455,2.1476,2.1474,2.1469,2.1456,2.1462,2.145,2.1443,2.1462,2.1435,2.1445,2.1455,2.1453,2.1453,2.1513,2.149,2.1515,2.1555,2.1574,2.1582,2.1589,2.1612,2.162,2.152,2.152,2.152,0,2.1494,2.1511,2.1489,2.1506,2.1508,2.1477,2.1499,2.1497,2.1493,2.1495,2.1477,2.1493,2.1486,2.1513,2.1529,2.1529,2.1536,2.1516,2.1583,2.1589,2.1595,2.1617,2.1625,2.1523,2.1523,2.1522,2.1522,0,2.1553,2.1566,2.1584,2.1584,2.1588,2.1607,2.1589,2.1596,2.1581,2.1571,2.1593,2.1584,2.1588,2.1594,2.1577,2.162,2.161,2.1588,2.1554,2.1609,2.1628,2.1636,2.1527,2.1526,2.1525,2.1525,0,0,2.1632,2.1624,2.1631,2.1632,2.1626,2.1635,2.1654,2.166,2.1668,2.1667,2.1683,2.1696,2.1677,2.1677,2.1661,2.1678,2.1729,2.1654,2.1653,2.1669,2.1777,2.1794,2.1803,2.1715,2.1716,2.1717,2.1778,0,2.1685,2.1717,2.1701,2.1735,2.1748,2.1721,2.1737,2.1736,2.1729,2.1738,2.1729,2.1739,2.1712,2.1713,2.1729,2.1719,2.175,2.1715,2.1729,2.173,2.1731,2.1813,2.183,2.1888,2.1786,2.1787,2.1788,0,2.1749,2.1755,2.1792,2.1788,2.1792,2.1808,2.1814,2.1823,2.1823,2.1816,2.1819,2.1801,2.182,2.1789,2.1816,2.1793,2.1798,2.1795,2.1797,2.1796,2.1761,2.1816,2.1905,2.1914,2.1799,2.1798,2.1798,0,2.1805,2.1821,2.1846,2.1848,2.1843,2.1855,2.1854,2.1852,2.1858,2.1863,2.1867,2.1874,2.1878,2.1884,2.1869,2.1847,2.1899,2.1866,2.1895,2.1895,2.1905,2.1905,2.1997,2.191,2.1909,2.1909,2.1909,0,2.1865,2.1888,2.1872,2.1887,2.1913,2.1895,2.1922,2.1918,2.1917,2.1932,2.1909,2.1923,2.1902,2.1914,2.1902,2.1928,2.193,2.1925,2.1922,2.1927,2.1928,2.1929,2.1925,2.1912,2.1911,2.1911,2.191,0,2.193,2.1919,2.1945,2.1941,2.194,2.196,2.1956,2.1971,2.1963,2.1982,2.1986,2.1974,2.1987,2.1974,2.1985,2.1978,2.2013,2.2003,2.2013,2.2011,2.2041,2.2038,2.2137,2.2149,2.2054,2.2055,2.2056,0,2.1968,2.1987,2.1986,2.1995,2.1996,2.201,2.2017,2.2002,2.201,2.2014,2.2028,2.2041,2.2049,2.2073,2.2065,2.2076,2.2066,2.2101,2.2067,2.2074,2.2068,2.2067,2.207,2.2107,2.2108,2.2109,2.211,0,2.2039,2.2034,2.2046,2.2057,2.2067,2.2074,2.208,2.2089,2.2073,2.2084,2.2099,2.2107,2.2122,2.2135,2.2144,2.2142,2.2124,2.2121,2.2128,2.2133,2.2139,2.2137,2.2032,2.2118,2.2117,2.2116,2.2116,2.2116,2.2092,2.2108,2.2112,2.2126,2.213,2.2137,2.2152,2.2148,2.2161,2.2172,2.2163,2.2182,2.2184,2.2195,2.2196,2.2211,2.2197,2.2207,2.221,2.2212,2.2217,2.2138,2.2213,2.2212,2.2212,2.2212,2.2212,0,2.2162,2.2164,2.2178,2.2189,2.2201,2.2186,2.2193,2.2204,2.2221,2.2226,2.2237,2.2256,2.227,2.2266,2.2278,2.2291,2.2284,2.2295,2.2294,2.2294,2.2229,2.2222,2.2302,2.2302,2.2302,2.2302,2.2302,2.2301,2.22,2.2228,2.2224,2.2254,2.2256,2.2276,2.2281,2.2288,2.2292,2.2316,2.2328,2.2326,2.2328,2.2341,2.2354,2.2352,2.2358,2.2373,2.2369,2.2307,2.2298,2.229,2.2283,2.2375,2.2375,2.2433,2.2433,2.2434]}]]